SCP
0 0 0 0 0 0 0 0 0 0 0 0 0 0 0 0 0 0 0 0 0 0 0 0 0 0 0 0 0 0 0 0 0 0 0 0 0 0 0 0 0 0 0
0 0 0 0 0 0 0 0 0 0 0 0 0 0 0 0 0 0 0 0 0 0 0 0 0 0 0 0 0 0 0 0 0 0 0 0 0 0 0 0 0 0 0
0 0 0 0 0 0 0 0 0 0 0 0 0 0 0 0 0 0 0 0 0 0 0 0 0 0 0 0 0 0 0 0 0 0 0 0 0 0 0 0 0 0 0
0 0 0 0 0 0 0 0 0 0 0 0 0 0 0 0 0 0 0 0 0 0 0 0 0 0 0 0 0 0 0 0 0 0 0 0 0 0 0 0 0 0 0
0 0 0 0 0 0 0 0 0 0 0 0 0 0 0 0 0 0 0 0 0 0 0 0 0 0 0 0 0 0 0 0 0 0 0 0 0 0 0 0 0 0 0
0 0 0 0 0 0 0 0 0 0 0 0 0 0 0 0 0 0 0 0 0 0 0 0 0 0 0 0 0 0 0 0 0 0 0 0 0 0 0 0 0 0 0
0 0 0 0 0 0 0 0 0 0 0 0 0 0 0 0 0 0 0 0 0 0 0 0 0 0 0 0 0 0 0 0 0 0 0 0 0 0 0 0 0 0 0
0 0 0 0 0 0 0 0 0 0 0 0 0 0 0 0 0 0 0 0 0 0 0 0 0 0 0 0 0 0 0 0 0 0 0 0 0 0 0 0 0 0 0
0 0 0 0 0 0 0 0 0 0 0 0 0 0 0 0 0 0 0 0 0 0 0 0 0 0 0 0 0 0 0 0 0 0 0 0 0 0 0 0 0 0 0
0 0 0 0 0 0 0 0 0 0 0 0 0 0 0 0 0 0 0 0 0 0 0 0 0 0 0 0 0 0 0 0 0 0 0 0 0 0 0 0 0 0 0
0 0 0 0 0 0 0 0 0 0 0 0 0 0 0 0 0 0 0 0 0 0 0 0 0 0 0 0 0 0 0 0 0 0 0 0 0 0 0 0 0 0 0
0 0 0 0 0 0 0 0 0 0 0 0 0 0 0 0 0 0 0 0 0 0 0 0 0 0 0 0 0 0 0 0 0 0 0 0 0 0 0 0 0 0 0
0 0 0 0 0 0 0 0 0 0 0 0 0 0 0 0 0 0 0 0 0 0 0 0 0 0 0 0 0 0 0 0 0 0 0 0 0 0 0 0 0 0 0
0 0 0 0 0 0 0 0 0 0 0 0 0 0 0 0 0 0 0 0 0 0 0 0 0 0 0 0 0 0 0 0 0 0 0 0 0 0 0 0 0 0 0
0 0 0 0 0 0 0 0 0 0 0 0 0 0 0 0 0 0 0 0 0 0 0 0 0 0 0 0 0 0 0 0 0 0 0 0 0 0 0 0 0 0 0
0 0 0 0 0 0 0 0 0 0 0 0 0 0 0 0 0 0 0 0 0 0 0 0 0 0 0 0 0 0 0 0 0 0 0 0 0 0 0 0 0 0 0
0 0 0 0 0 0 0 0 0 0 0 0 0 0 0 0 0 0 0 0 0 0 0 0 0 0 0 0 0 0 0 0 0 0 0 0 0 0 0 0 0 0 0
0 0 0 0 0 0 0 0 0 0 0 0 0 0 0 0 0 0 0 0 0 0 0 0 0 0 0 0 0 0 0 0 0 0 0 0 0 0 0 0 0 0 0
0 0 0 0 0 0 0 0 0 0 0 0 0 0 0 0 0 0 0 0 0 0 0 0 0 0 0 0 0 0 0 0 0 0 0 0 0 0 0 0 0 0 0
0 0 0 0 0 0 0 0 0 0 0 0 0 0 0 0 0 0 0 0 0 0 0 0 0 0 0 0 0 0 0 0 0 0 0 0 0 0 0 0 0 0 0
0 0 0 0 0 0 0 0 0 0 0 0 0 0 0 0 0 0 0 0 0 0 0 0 0 0 0 0 0 0 0 0 0 0 0 0 0 0 0 0 0 0 0
0 0 0 0 0 0 0 0 0 0 0 0 0 0 0 0 0 0 0 0 0 0 0 0 0 0 0 0 0 0 0 0 0 0 0 0 0 0 0 0 0 0 0
0 0 0 0 0 0 0 0 0 0 0 0 0 0 0 0 0 0 0 0 0 0 0 0 0 0 0 0 0 0 0 0 0 0 0 0 0 0 0 0 0 0 0
0 0 0 0 0 0 0 0 0 0 0 0 0 0 0 0 0 0 0 0 0 0 0 0 0 0 0 0 0 0 0 0 0 0 0 0 0 0 0 0 0 0 0
0 0 0 0 0 0 0 0 0 0 0 0 0 0 0 0 0 0 0 0 0 0 0 0 0 0 0 0 0 0 0 0 0 0 0 0 0 0 0 0 0 0 0
0 0 0 0 0 0 0 0 0 0 0 0 0 0 0 0 0 0 0 0 0 0 0 0 0 0 0 0 0 0 0 0 0 0 0 0 0 0 0 0 0 0 0
Wind_Speed
10 9 8 7 7 6 6 5 5 6 5 5 3 4 3 3 3 2 2 3 4 0 5 7 8 9 11 11 12 12 12 12 12 13 13 13 13 14 14 15 15 15 16
10 10 10 9 8 7 6 6 6 6 5 4 4 4 4 4 4 4 3 3 5 5 6 8 9 10 11 10 10 10 10 10 10 10 11 11 11 11 12 13 14 14 15
13 11 10 9 8 7 7 6 7 5 5 5 5 4 3 4 4 5 5 4 5 9 9 9 9 10 9 9 8 8 8 9 9 9 9 9 9 10 10 11 12 12 13
15 12 10 10 9 8 8 7 7 6 5 5 4 4 4 4 5 5 5 4 4 5 8 10 9 9 8 7 7 7 7 7 8 8 8 8 9 9 10 10 11 11 12
16 13 11 10 11 8 8 8 7 6 6 6 4 4 4 4 4 5 5 5 5 4 5 8 10 9 7 6 6 6 7 8 8 8 8 8 9 9 9 10 10 11 11
17 15 11 12 12 9 9 9 9 6 6 6 6 4 3 3 4 5 6 5 4 4 4 4 4 6 8 6 6 6 7 8 8 8 8 9 9 9 10 10 10 11 11
17 16 11 13 12 11 12 12 9 10 7 7 6 4 3 3 4 4 4 5 5 4 4 3 3 3 3 6 8 8 8 8 8 8 8 9 9 9 10 10 11 11 11
17 15 15 13 14 12 14 14 12 9 7 9 6 5 5 4 5 5 5 5 5 4 4 3 4 4 4 3 7 9 9 8 8 8 9 9 9 10 10 11 11 12 12
16 16 17 15 15 14 14 16 15 14 10 10 6 5 6 7 5 6 7 6 6 5 4 4 5 5 5 4 5 7 8 8 8 8 9 9 10 10 11 11 11 12 12
15 16 17 17 16 14 15 15 15 13 12 11 7 5 3 2 6 6 7 8 8 7 6 5 5 6 6 5 5 6 6 7 7 8 8 9 10 10 10 11 11 11 12
14 16 17 16 16 14 15 16 16 15 12 12 9 6 5 3 4 5 6 7 8 8 6 6 5 5 6 6 4 5 4 5 6 6 7 8 9 10 10 10 11 11 12
11 16 16 16 16 14 16 16 16 18 14 13 11 8 8 7 7 6 5 5 6 7 8 6 6 6 6 6 6 4 2 3 5 6 7 8 8 9 10 11 11 12 12
10 14 15 16 15 16 16 15 16 17 18 17 14 11 9 9 6 7 6 5 5 4 6 6 6 6 6 6 6 5 2 3 5 6 7 7 8 9 10 11 11 12 12
10 12 15 16 17 17 16 16 15 16 16 17 17 15 10 9 7 7 7 7 5 5 6 7 7 8 7 7 7 6 4 3 6 7 8 8 8 9 10 11 11 12 12
10 13 14 16 17 17 17 17 14 17 16 17 17 16 12 9 8 7 7 8 8 8 9 10 8 9 8 8 9 6 5 5 7 9 9 9 9 9 10 11 11 12 13
12 13 14 16 17 17 17 18 16 17 17 17 14 16 15 10 9 8 8 7 8 8 7 7 7 8 11 8 10 7 6 6 10 10 10 10 10 10 10 11 11 12 13
13 13 14 15 16 17 18 18 19 18 20 19 17 18 18 15 11 10 9 9 8 8 6 5 5 7 12 11 9 7 6 7 6 10 11 11 11 10 10 11 12 13 14
12 13 14 15 16 17 18 19 20 20 21 21 20 20 20 14 16 13 11 12 10 10 8 8 7 8 10 11 10 9 6 6 7 10 12 12 11 10 10 12 13 14 14
12 11 13 15 16 16 18 19 19 20 21 21 20 21 20 19 20 15 15 13 11 9 8 7 7 5 5 7 9 8 8 8 7 8 11 12 11 11 11 13 15 14 14
12 12 12 14 15 16 17 17 17 19 20 20 20 20 20 22 22 20 16 16 13 12 10 9 7 6 6 7 8 7 7 8 7 6 8 8 9 11 13 15 15 15 14
12 12 12 13 14 14 14 16 17 18 19 20 20 21 21 21 23 20 16 17 16 14 12 11 9 8 8 8 9 8 7 6 5 5 5 5 5 5 7 10 13 13 14
13 13 12 13 14 12 18 24 20 18 18 20 20 20 20 20 21 29 28 26 25 21 18 15 12 12 13 10 9 8 7 5 4 4 3 4 4 6 7 7 11 15 16
14 14 14 13 15 17 23 25 26 19 19 19 20 18 16 16 19 21 27 30 28 29 27 18 17 15 13 14 13 12 8 6 4 3 2 4 5 7 7 8 15 16 17
14 14 14 15 15 16 21 24 24 21 21 21 20 19 19 18 19 21 19 20 20 22 23 16 12 10 9 12 12 10 9 6 4 4 4 4 5 6 6 8 14 16 17
15 15 14 15 16 17 21 23 24 15 17 21 19 19 19 20 24 29 22 21 20 18 22 20 14 13 16 17 14 10 9 7 5 4 7 5 4 4 6 8 10 15 16
16 16 16 15 16 17 20 23 25 14 16 16 15 16 18 19 24 30 23 21 22 19 16 17 16 16 15 16 19 12 10 9 5 4 7 5 4 3 5 5 7 8 11
Wind_Direction
189 186 185 183 181 172 171 167 163 156 150 143 137 133 125 115 119 126 111 4 338 20 130 123 117 113 103 96 92 86 81 72 65 59 55 50 46 44 43 42 40 38 36
190 187 186 186 184 179 173 171 166 162 156 151 149 146 148 142 138 145 133 106 38 47 105 113 111 109 102 97 91 85 79 74 66 59 54 48 44 42 40 39 38 35 33
191 189 187 188 185 175 166 164 163 163 158 157 155 153 153 152 147 144 141 131 98 65 73 91 96 95 93 92 89 85 79 74 67 60 54 48 43 39 37 34 32 29 27
192 189 188 189 180 173 172 169 167 167 168 168 163 157 154 150 147 145 140 133 116 101 81 72 75 79 81 81 81 80 78 74 68 61 54 47 41 36 33 30 26 23 20
194 191 190 184 176 177 177 172 173 172 171 165 153 150 154 154 150 150 139 127 114 107 99 78 64 57 60 63 71 78 78 74 67 59 51 43 36 31 27 23 19 16 13
194 193 191 182 178 178 179 178 171 172 166 151 135 130 139 150 163 155 148 135 125 118 112 105 91 71 60 59 73 78 77 71 62 53 44 36 28 22 18 15 12 9 7
196 196 189 183 183 186 184 178 167 167 164 158 143 135 133 158 176 171 168 159 148 139 126 122 116 117 100 76 74 70 65 60 53 44 35 27 20 14 10 7 5 2 359
201 199 193 187 188 188 186 183 176 175 169 185 176 153 163 183 201 195 188 182 172 165 154 143 134 134 133 113 83 68 55 47 41 33 26 18 12 7 4 1 359 356 353
208 205 201 193 192 192 191 189 187 183 180 190 216 195 178 185 166 182 199 196 193 192 181 164 156 149 145 133 115 78 55 41 29 22 15 8 4 360 357 355 352 350 348
214 212 209 203 198 197 195 193 193 195 188 187 198 232 259 177 167 166 189 203 206 212 200 182 170 163 161 148 122 90 60 40 22 11 4 358 354 351 348 347 345 344 343
216 218 217 211 205 203 200 194 193 197 198 195 188 178 186 203 211 169 174 184 200 210 204 196 181 174 173 168 156 103 62 28 7 356 349 344 341 340 338 338 338 338 338
214 219 221 217 213 208 205 199 196 199 201 204 198 189 179 180 191 191 173 170 187 187 193 194 191 183 180 179 161 125 73 0 341 332 328 328 327 328 328 329 330 331 333
215 215 215 218 218 215 210 204 202 203 204 205 205 204 205 202 178 188 185 158 164 158 183 195 194 186 182 182 170 160 168 314 310 306 309 312 313 316 319 321 324 326 327
229 221 215 218 220 218 215 209 210 209 208 210 212 211 210 206 192 184 179 162 163 171 190 187 183 188 186 187 179 189 215 253 284 286 293 294 298 306 310 314 318 320 322
244 230 221 221 222 220 217 213 216 213 211 212 214 212 213 207 204 196 180 180 182 189 200 191 184 189 188 188 183 203 229 237 264 274 278 280 288 296 302 308 312 314 317
256 242 230 224 224 223 220 218 220 218 214 214 214 212 212 207 201 196 188 188 198 203 197 171 182 178 180 187 190 210 231 248 256 262 263 269 278 286 295 302 304 307 310
268 252 239 230 226 223 220 222 223 220 218 217 214 214 213 205 201 196 190 186 190 192 180 156 167 168 179 189 194 211 232 242 243 243 253 264 272 282 290 292 297 302 306
282 264 251 240 233 227 223 223 225 225 221 219 216 214 214 205 207 199 194 193 192 190 183 169 169 174 188 194 199 211 224 238 245 243 250 259 267 272 276 284 291 296 300
297 277 258 249 241 233 229 226 227 228 227 224 220 216 213 204 207 202 199 196 191 186 185 168 163 165 178 189 197 210 225 233 237 241 247 253 252 257 272 283 288 292 296
310 293 272 257 249 241 234 230 229 231 231 229 225 220 216 210 208 201 198 196 187 183 183 180 168 168 171 171 188 199 206 214 220 222 235 237 244 259 273 279 284 289 291
316 302 285 268 255 247 239 234 231 232 233 232 229 225 221 217 213 204 198 193 186 185 183 189 187 178 181 173 191 186 198 199 224 220 229 223 241 261 273 276 277 279 284
321 311 294 277 264 250 243 237 233 232 233 234 232 228 224 218 213 211 208 199 193 188 186 187 192 196 193 184 171 172 176 188 214 187 218 249 258 271 272 270 274 281 287
316 311 301 290 276 263 254 245 237 233 233 234 233 230 225 220 212 213 213 209 206 207 198 191 192 195 184 180 171 173 179 186 192 146 205 278 261 253 253 257 267 274 282
309 304 300 293 284 273 264 254 244 236 237 236 234 230 227 222 213 209 206 206 206 209 207 202 202 189 175 165 165 162 164 184 231 233 207 259 266 251 248 255 263 267 273
301 297 292 287 281 276 267 259 250 241 239 238 234 231 227 224 216 209 205 205 205 207 207 196 189 172 161 158 154 149 160 172 207 217 190 219 248 261 263 259 256 257 263
292 292 287 282 277 273 267 260 251 243 242 239 232 228 224 221 215 209 207 204 204 198 188 184 182 176 170 170 172 172 169 178 186 207 182 201 232 243 264 238 241 249 258